Fargo, ND

11:42 PM CST on November 18, 2017 (GMT -0600)
Hector International

Weather History for KFAR - February, 2013

Change the Weather History Date:

Sunday, February 24, 2013

  Actual Average Record
Temperature  
Mean Temperature 12 °F 18 °F  
Max Temperature 22 °F 27 °F 51 °F (1976)
Min Temperature 1 °F 10 °F -28 °F (1889)
Degree Days  
Heating Degree Days 53 47  
Month to date heating degree days 1277 1228  
Since 1 July heating degree days 6410 6496  
Cooling Degree Days 0 0  
Month to date cooling degree days 0 0  
Year to date cooling degree days 0 0  
Moisture  
Dew Point 5 °F    
Average Humidity 75    
Maximum Humidity 87    
Minimum Humidity 62    
Precipitation  
Precipitation 0.00 in 0.03 in 0.42 in (1930)
Month to date precipitation 1.22 0.49  
Year to date precipitation 2.19 1.19  
Snow  
Snow 0.00 in 0.30 in 5.10 in (1982)
Month to date snowfall 14.4 5.8  
Since 1 July snowfall 37.1 36.8  
Snow Depth 12.00 in    
Sea Level Pressure  
Sea Level Pressure 30.04 in    
Wind  
Wind Speed 7 mph (South)    
Max Wind Speed 15 mph    
Max Gust Speed 17 mph    
Visibility 7 miles    
Events Fog    
T = Trace of Precipitation, MM = Missing Value Source: NWS Daily Summary

Daily Weather History Graph

Daily Weather History Graph

Search for Another Location

Airport or City:

Trip Planner

Search our weather history database for the weather conditions in past years. The results will help you decide how hot, cold, wet, or windy it might be!

Date:

Astronomy

Feb. 24, 2013 Rise Set
Actual Time 7:15 AM CST 6:05 PM CST
Civil Twilight 6:44 AM CST 6:36 PM CST
Nautical Twilight 6:09 AM CST 7:11 PM CST
Astronomical Twilight 5:34 AM CST 7:47 PM CST
Moon 5:18 PM CST (2/24) 6:14 AM CST (2/24)
Length of Visible Light 11h 51m
Length of Day
10h 50m
Waxing Gibbous, 99% of the Moon is Illuminated
Feb 24
Waxing Gibbous
Feb 25
Full
Mar 4
Last Quarter
Mar 11
New
Mar 19
First Quarter

Hourly Weather History & Observations

Time (CST) Temp. Windchill Dew Point Humidity Pressure Visibility Wind Dir Wind Speed Gust Speed Precip Events Conditions
12:41 AM 6.8 °F - 1.4 °F 79% 29.95 in 10.0 mi Calm Calm - N/A   Scattered Clouds
12:50 AM 6.8 °F - 1.4 °F 79% 29.95 in 10.0 mi Calm Calm - N/A   Mostly Cloudy
12:53 AM 7.0 °F - 1.9 °F 80% 30.01 in 10.0 mi Calm Calm - N/A   Mostly Cloudy
1:36 AM 5.0 °F -2.1 °F 1.4 °F 85% 29.96 in 8.0 mi ESE 3.5 mph - N/A   Scattered Clouds
1:44 AM 6.8 °F -0.1 °F 1.4 °F 79% 29.96 in 4.0 mi South 3.5 mph - N/A   Mostly Cloudy
1:53 AM 8.1 °F 1.4 °F 3.9 °F 83% 30.02 in 2.0 mi SE 3.5 mph - N/A   Mostly Cloudy
2:05 AM 6.8 °F -0.1 °F 1.4 °F 79% 29.96 in 4.0 mi SE 3.5 mph - N/A   Overcast
2:30 AM 6.8 °F -3.5 °F 1.4 °F 79% 29.96 in 0.8 mi ESE 5.8 mph - N/A   Haze
2:53 AM 5.0 °F -2.1 °F 1.9 °F 87% 30.02 in 1.8 mi South 3.5 mph - N/A   Overcast
3:18 AM 5.0 °F - 3.2 °F 92% 29.97 in 3.0 mi Calm Calm - N/A   Overcast
3:24 AM 5.0 °F - 1.4 °F 85% 29.97 in 1.5 mi Calm Calm - N/A   Overcast
3:32 AM 5.0 °F -2.1 °F -0.4 °F 78% 29.96 in 0.5 mi SSW 3.5 mph - N/A   Haze
3:48 AM 3.2 °F -6.2 °F -0.4 °F 85% 29.97 in 2.0 mi WSW 4.6 mph - N/A   Overcast
3:53 AM 3.0 °F -9.3 °F -0.9 °F 84% 30.04 in 6.0 mi WSW 6.9 mph - N/A   Overcast
4:32 AM 3.2 °F -6.2 °F -2.2 °F 78% 29.98 in 1.8 mi South 4.6 mph - N/A   Haze
4:42 AM 3.2 °F -4.2 °F -0.4 °F 85% 29.98 in 0.5 mi South 3.5 mph - N/A Fog Light Freezing Fog
4:53 AM 3.0 °F -8.0 °F -0.0 °F 87% 30.05 in 0.8 mi South 5.8 mph - N/A   Mist
5:04 AM 3.2 °F -4.2 °F -0.4 °F 85% 29.99 in 1.8 mi South 3.5 mph - N/A   Overcast
5:10 AM 3.2 °F -6.2 °F -0.4 °F 85% 29.99 in 3.0 mi South 4.6 mph - N/A   Overcast
5:13 AM 1.4 °F -8.3 °F -2.2 °F 85% 29.99 in 1.8 mi SSW 4.6 mph - N/A   Overcast
5:25 AM 1.4 °F -6.2 °F -2.2 °F 85% 29.99 in 4.0 mi SSE 3.5 mph - N/A   Haze
5:50 AM 1.4 °F -8.3 °F -2.2 °F 85% 30.00 in 10.0 mi ESE 4.6 mph - N/A   Scattered Clouds
5:53 AM 1.4 °F -8.3 °F -4.0 °F 78% 30.00 in 10.0 mi SE 4.6 mph - N/A   Partly Cloudy
6:53 AM 1.9 °F -5.6 °F -2.0 °F 83% 30.07 in 10.0 mi SE 3.5 mph - N/A   Clear
7:53 AM 1.9 °F -5.6 °F -2.9 °F 80% 30.09 in 10.0 mi SSE 3.5 mph - N/A   Clear
8:53 AM 6.1 °F -0.9 °F 1.9 °F 83% 30.08 in 8.0 mi SSE 3.5 mph - N/A   Clear
9:53 AM 9.0 °F -2.2 °F 5.0 °F 84% 30.09 in 10.0 mi South 6.9 mph - N/A   Clear
10:53 AM 12.9 °F 2.6 °F 9.0 °F 84% 30.09 in 10.0 mi South 6.9 mph - N/A   Clear
11:53 AM 15.1 °F 3.3 °F 10.0 °F 80% 30.10 in 10.0 mi South 9.2 mph - N/A   Clear
12:53 PM 18.0 °F 6.1 °F 10.9 °F 74% 30.09 in 10.0 mi South 10.4 mph - N/A   Clear
1:53 PM 21.0 °F 11.4 °F 10.9 °F 65% 30.08 in 10.0 mi SSE 8.1 mph - N/A   Clear
2:53 PM 21.0 °F 10.6 °F 12.0 °F 68% 30.08 in 10.0 mi South 9.2 mph - N/A   Clear
3:53 PM 21.9 °F 11.0 °F 12.0 °F 66% 30.07 in 10.0 mi South 10.4 mph - N/A   Clear
4:53 PM 21.0 °F 8.6 °F 12.0 °F 68% 30.06 in 10.0 mi SSE 12.7 mph - N/A   Clear
5:53 PM 19.0 °F 7.5 °F 10.9 °F 71% 30.09 in 10.0 mi South 10.4 mph - N/A   Clear
6:11 PM 19.4 °F 7.2 °F 12.2 °F 74% 30.03 in 10.0 mi South 11.5 mph - N/A   Mostly Cloudy
6:53 PM 19.9 °F 9.3 °F 12.0 °F 71% 30.10 in 10.0 mi SSE 9.2 mph - N/A   Overcast
7:53 PM 19.9 °F 8.6 °F 12.9 °F 74% 30.11 in 10.0 mi SSE 10.4 mph - N/A   Overcast
8:53 PM 19.9 °F 9.3 °F 12.9 °F 74% 30.10 in 10.0 mi South 9.2 mph - N/A   Overcast
9:18 PM 19.4 °F 9.5 °F 12.2 °F 74% 30.04 in 10.0 mi South 8.1 mph - N/A   Overcast
9:53 PM 19.9 °F 10.1 °F 14.0 °F 78% 30.10 in 10.0 mi South 8.1 mph - N/A   Overcast
10:53 PM 19.9 °F 11.1 °F 14.0 °F 78% 30.10 in 9.0 mi South 6.9 mph - N/A   Overcast
11:43 PM 19.4 °F 11.5 °F 15.8 °F 86% 30.04 in 5.0 mi South 5.8 mph - N/A   Overcast
11:53 PM 19.9 °F 12.1 °F 16.0 °F 85% 30.10 in 4.0 mi South 5.8 mph - N/A   Overcast